Location: Rioux
(40.7500°S, 175.7500°E)
Time: 11:23:08
(UTC+00:00)

Landsat 7 - Pass Details

Date: 12 June 2024
Orbit: 690 x 691 km, 97.9° (Epoch: 21 July)

Event Time Altitude Azimuth Distance (km) Brightness Sun altitude
Rises 19:02:21 0° 15° (NNE) 3,055 7.8 -6.9°
Reaches altitude 10° 19:04:35 10° 15° (NNE) 2,147 6.9 -6.5°
Maximum altitude 19:09:18 88° 106° (ESE) 706 3.9 -5.7°
Drops below altitude 10° 19:14:05 10° 192° (SSW) 2,177 6.0 -4.9°
Sets 19:16:21 0° 192° (SSW) 3,102 6.8 -4.5°
